Zurück zum Katalog

STARLINK-11382

AktivKommunikationVLEO
NORAD 62881·PAYLOAD·🇺🇸 United States

Gestartet Feb 4, 2025 von Cape Canaveral Space Force Station

Loading…

Nächste Überflüge (nächste 24 Stunden)

TLE

AktuellSource: CelesTrak SupGP

Epoche: Sep 14, 2026, 15:27 UTC

1 62881C 25024C   26257.64423611  .00062685  00000+0  48752-3 0  2579
2 62881  43.0002 122.5677 0001688 245.4894 109.9859 15.70775518    13

Verfolge STARLINK-11382 in Echtzeit mit AllMySat

Download on the App Store